When you browse on this site, cookies collect data to enhance your experience and personalize the content and advertising you see.
Visit our Privacy Policy to learn more. By continuing to use the site, you agree to this use of cookies and data.
  • In Hungary
  • List of Countries
  • For 7 days
  • Water Temperature
  • Weather Map
  • News
  • Weather Widgets
  • user-avatar
    Login

    Hourly Weather Bogor

    Today, 22 November, Friday

    Time Temperature Precipitation Wind Pressure Humidity
    00:00 +27°C° 0.5 mm 1 mps 737 mmHg 88%
    01:00 +26°C° 0 mm 1 mps 736 mmHg 88%
    02:00 +26°C° 0.2 mm 1 mps 736 mmHg 88%
    03:00 +26°C° 0.2 mm 1 mps 736 mmHg 87%
    04:00 +26°C° 0.2 mm 1 mps 736 mmHg 87%
    05:00 +27°C° 0 mm 1 mps 736 mmHg 84%
    06:00 +27°C° 0 mm 1 mps 737 mmHg 81%
    07:00 +28°C° 0 mm 1 mps 738 mmHg 77%
    08:00 +30°C° 0.2 mm 1 mps 738 mmHg 71%
    09:00 +31°C° 0.2 mm 1 mps 738 mmHg 65%
    10:00 +33°C° 0.2 mm 1 mps 738 mmHg 59%
    11:00 +33°C° 0.8 mm 1 mps 738 mmHg 59%
    12:00 +33°C° 0.8 mm 1 mps 737 mmHg 59%
    13:00 +34°C° 0.8 mm 2 mps 737 mmHg 59%
    14:00 +32°C° 1 mm 1 mps 736 mmHg 61%
    15:00 +32°C° 1 mm 1 mps 736 mmHg 63%
    16:00 +31°C° 1 mm 1 mps 735 mmHg 66%
    17:00 +30°C° 0.6 mm 1 mps 736 mmHg 71%
    18:00 +29°C° 0.6 mm 1 mps 736 mmHg 77%
    19:00 +28°C° 0.6 mm 1 mps 736 mmHg 83%
    20:00 +28°C° 0.1 mm 1 mps 737 mmHg 84%
    21:00 +28°C° 0.1 mm 1 mps 737 mmHg 86%
    22:00 +25°C° 0.1 mm 0 mps 737 mmHg 87%
    23:00 +25°C° 0.1 mm 0 mps 737 mmHg 88%

    Tomorrow, 23 November, Saturday

    Time Temperature Precipitation Wind Pressure Humidity
    00:00 +25°C° 0.1 mm 0 mps 737 mmHg 88%
    01:00 +25°C° 0.1 mm 0 mps 736 mmHg 89%
    02:00 +25°C° 0.1 mm 0 mps 736 mmHg 89%
    03:00 +24°C° 0.1 mm 0 mps 736 mmHg 89%
    04:00 +24°C° 0.1 mm 0 mps 735 mmHg 89%
    05:00 +25°C° 0 mm 0 mps 736 mmHg 87%
    06:00 +25°C° 0 mm 0 mps 737 mmHg 84%
    07:00 +26°C° 0 mm 0 mps 737 mmHg 82%
    08:00 +27°C° 0.2 mm 0 mps 737 mmHg 76%
    09:00 +31°C° 0.2 mm 1 mps 738 mmHg 70%
    10:00 +32°C° 0.2 mm 1 mps 738 mmHg 64%
    11:00 +33°C° 0.6 mm 1 mps 737 mmHg 61%
    12:00 +33°C° 0.6 mm 1 mps 737 mmHg 58%
    13:00 +34°C° 0.6 mm 1 mps 736 mmHg 56%
    14:00 +33°C° 1.3 mm 1 mps 736 mmHg 59%
    15:00 +32°C° 1.3 mm 1 mps 736 mmHg 63%
    16:00 +31°C° 1.3 mm 1 mps 735 mmHg 67%
    17:00 +30°C° 1 mm 1 mps 736 mmHg 73%
    18:00 +29°C° 1 mm 1 mps 736 mmHg 78%
    19:00 +26°C° 1 mm 0 mps 737 mmHg 84%
    20:00 +26°C° 0.3 mm 0 mps 737 mmHg 84%
    21:00 +25°C° 0.3 mm 0 mps 737 mmHg 85%
    22:00 +25°C° 0.3 mm 0 mps 737 mmHg 86%
    23:00 +25°C° 0 mm 0 mps 737 mmHg 86%

    Day after tomorrow, 24 November, Sunday

    Time Temperature Precipitation Wind Pressure Humidity
    00:00 +25°C° 0 mm 0 mps 736 mmHg 86%
    01:00 +24°C° 0 mm 0 mps 736 mmHg 86%
    02:00 +24°C° 0 mm 0 mps 736 mmHg 87%
    03:00 +24°C° 0 mm 0 mps 736 mmHg 87%
    04:00 +24°C° 0 mm 0 mps 735 mmHg 87%
    05:00 +25°C° 0 mm 0 mps 736 mmHg 84%
    06:00 +25°C° 0 mm 0 mps 737 mmHg 81%
    07:00 +26°C° 0 mm 0 mps 737 mmHg 77%
    08:00 +28°C° 0 mm 0 mps 737 mmHg 71%
    09:00 +31°C° 0 mm 1 mps 738 mmHg 64%
    10:00 +33°C° 0 mm 1 mps 738 mmHg 58%
    11:00 +33°C° 0.3 mm 1 mps 737 mmHg 56%
    12:00 +34°C° 0.3 mm 1 mps 737 mmHg 54%
    13:00 +35°C° 0.3 mm 2 mps 736 mmHg 52%
    14:00 +34°C° 0.6 mm 2 mps 736 mmHg 56%
    15:00 +32°C° 0.6 mm 2 mps 735 mmHg 61%
    16:00 +31°C° 0.6 mm 2 mps 735 mmHg 66%
    17:00 +30°C° 0.6 mm 1 mps 735 mmHg 71%
    18:00 +29°C° 0.6 mm 1 mps 736 mmHg 76%
    19:00 +28°C° 0.6 mm 1 mps 737 mmHg 82%
    20:00 +26°C° 0.4 mm 0 mps 737 mmHg 83%
    21:00 +25°C° 0.4 mm 0 mps 737 mmHg 84%
    22:00 +25°C° 0.4 mm 0 mps 738 mmHg 85%
    23:00 +27°C° 0.1 mm 1 mps 737 mmHg 86%

    25 November, Monday

    Time Temperature Precipitation Wind Pressure Humidity
    00:00 +27°C° 0.1 mm 1 mps 737 mmHg 86%
    01:00 +26°C° 0.1 mm 1 mps 736 mmHg 86%
    02:00 +26°C° 0.1 mm 1 mps 736 mmHg 86%
    03:00 +26°C° 0.1 mm 1 mps 736 mmHg 87%
    04:00 +26°C° 0.1 mm 1 mps 736 mmHg 87%
    05:00 +27°C° 0.1 mm 1 mps 736 mmHg 84%
    06:00 +27°C° 0.1 mm 1 mps 737 mmHg 82%
    07:00 +26°C° 0.1 mm 0 mps 737 mmHg 79%
    08:00 +29°C° 0.2 mm 1 mps 737 mmHg 74%
    09:00 +31°C° 0.2 mm 1 mps 738 mmHg 68%
    10:00 +33°C° 0.2 mm 1 mps 738 mmHg 63%
    11:00 +33°C° 0.5 mm 1 mps 737 mmHg 61%
    12:00 +34°C° 0.5 mm 1 mps 736 mmHg 59%
    13:00 +34°C° 0.5 mm 1 mps 736 mmHg 57%
    14:00 +33°C° 1.1 mm 1 mps 735 mmHg 60%
    15:00 +33°C° 1.1 mm 1 mps 735 mmHg 63%
    16:00 +32°C° 1.1 mm 1 mps 734 mmHg 66%
    17:00 +31°C° 0.6 mm 1 mps 735 mmHg 71%
    18:00 +29°C° 0.6 mm 1 mps 735 mmHg 77%
    19:00 +28°C° 0.6 mm 1 mps 736 mmHg 82%
    20:00 +28°C° 0.1 mm 1 mps 736 mmHg 84%
    21:00 +28°C° 0.1 mm 1 mps 736 mmHg 85%
    22:00 +26°C° 0.1 mm 0 mps 737 mmHg 86%
    23:00 +25°C° 0.1 mm 0 mps 736 mmHg 86%

    26 November, Tuesday

    Time Temperature Precipitation Wind Pressure Humidity
    00:00 +25°C° 0.1 mm 0 mps 736 mmHg 87%
    01:00 +25°C° 0.1 mm 0 mps 735 mmHg 87%
    02:00 +25°C° 0.5 mm 0 mps 735 mmHg 88%
    03:00 +25°C° 0.5 mm 0 mps 735 mmHg 88%
    04:00 +24°C° 0.5 mm 0 mps 735 mmHg 89%
    05:00 +25°C° 0.6 mm 0 mps 735 mmHg 86%
    06:00 +27°C° 0.6 mm 1 mps 736 mmHg 84%
    07:00 +28°C° 0.6 mm 1 mps 736 mmHg 82%
    08:00 +29°C° 0.2 mm 1 mps 736 mmHg 76%
    09:00 +31°C° 0.2 mm 1 mps 737 mmHg 71%
    10:00 +32°C° 0.2 mm 1 mps 737 mmHg 65%
    11:00 +32°C° 0.8 mm 1 mps 736 mmHg 64%
    12:00 +32°C° 0.8 mm 1 mps 735 mmHg 63%
    13:00 +33°C° 0.8 mm 1 mps 735 mmHg 62%
    14:00 +32°C° 1.5 mm 1 mps 734 mmHg 64%
    15:00 +32°C° 1.5 mm 1 mps 734 mmHg 67%
    16:00 +31°C° 1.5 mm 1 mps 733 mmHg 69%
    17:00 +30°C° 1.5 mm 1 mps 734 mmHg 75%
    18:00 +29°C° 1.5 mm 1 mps 734 mmHg 80%
    19:00 +26°C° 1.5 mm 0 mps 735 mmHg 86%
    20:00 +26°C° 0.4 mm 0 mps 735 mmHg 86%
    21:00 +26°C° 0.4 mm 0 mps 736 mmHg 87%
    22:00 +26°C° 0.4 mm 0 mps 736 mmHg 88%
    23:00 +25°C° 0.6 mm 0 mps 736 mmHg 89%

    27 November, Wednesday

    Time Temperature Precipitation Wind Pressure Humidity
    00:00 +25°C° 0.6 mm 0 mps 735 mmHg 89%
    01:00 +25°C° 0.6 mm 0 mps 735 mmHg 90%
    02:00 +25°C° 0.6 mm 0 mps 735 mmHg 90%
    03:00 +24°C° 0.6 mm 0 mps 734 mmHg 90%
    04:00 +24°C° 0.6 mm 0 mps 734 mmHg 91%
    05:00 +25°C° 0 mm 0 mps 735 mmHg 88%
    06:00 +27°C° 0 mm 1 mps 735 mmHg 86%
    07:00 +28°C° 0 mm 1 mps 736 mmHg 83%
    08:00 +29°C° 0 mm 1 mps 736 mmHg 76%
    09:00 +31°C° 0 mm 1 mps 736 mmHg 69%
    10:00 +32°C° 0 mm 1 mps 736 mmHg 62%
    11:00 +34°C° 0.1 mm 2 mps 736 mmHg 58%
    12:00 +34°C° 0.1 mm 2 mps 735 mmHg 55%
    13:00 +35°C° 0.1 mm 2 mps 735 mmHg 52%
    14:00 +34°C° 0.6 mm 2 mps 735 mmHg 56%
    15:00 +32°C° 0.6 mm 2 mps 734 mmHg 60%
    16:00 +32°C° 0.6 mm 1 mps 734 mmHg 64%
    17:00 +31°C° 1 mm 1 mps 734 mmHg 71%
    18:00 +29°C° 1 mm 1 mps 735 mmHg 77%
    19:00 +28°C° 1 mm 1 mps 735 mmHg 83%
    20:00 +28°C° 0.2 mm 1 mps 736 mmHg 84%
    21:00 +28°C° 0.2 mm 1 mps 736 mmHg 86%
    22:00 +25°C° 0.2 mm 0 mps 736 mmHg 87%
    23:00 +25°C° 0 mm 0 mps 736 mmHg 87%
    Show more